Location: Arrington
(35.8681°N, 86.7092°W)
Time: 04:41:09
(UTC+00:00)

SL-16 R/B - Pass Details

Date: 23 November 2019
Orbit: 842 x 846 km, 71.0° (Epoch: 15 December)

Event Time Altitude Azimuth Distance (km) Brightness Sun altitude
Rises 01:18:25 0° 241° (WSW) 3,391 6.2 -32.7°
Reaches altitude 10° 01:21:33 10° 258° (WSW) 2,461 5.4 -33.3°
Maximum altitude 01:25:34 20° 304° (NW) 1,872 4.4 -34.1°
Enters shadow 01:28:35 14° 341° (NNW) 2,224 4.5 -34.8°
